Location: Gellin
(53.4498°N, 14.3207°E)
Time: 22:36:05
(UTC+00:00)

Cosmos 1536 - Pass Details

Date: 03 March 2021
Orbit: 540 x 558 km, 82.5° (Epoch: 12 April)

Event Time Altitude Azimuth Distance (km) Brightness Sun altitude
Exits shadow 19:45:26 38° 339° (NNW) 847 4.0 -26.9°
Drops below altitude 10° 19:48:11 10° 3° (N) 1,825 5.7 -27.3°
Sets 19:50:23 0° 9° (N) 2,720 6.6 -27.6°
